Regional Weather Roundup
Issued by NWS Albany, NY

Home | Current Version | Previous Version | Text Only | Print | Product List | Glossary On
Versions: 1 2 3 4 5 6 7 8 9 10 11 12 13 14 15 16 17 18 19 20 21 22 23 24 25 26 27 28 29 30 31 32 33 34 35 36 37 38 39 40 41 42 43 44 45 46 47 48 49 50
925
ASUS41 KALY 080010
RWRALY

NEW YORK STATE HOURLY WEATHER ROUNDUP
NATIONAL WEATHER SERVICE ALBANY NY
700 PM EST SUN FEB 07 2016

NOTE: "FAIR" INDICATES FEW OR NO CLOUDS BELOW 12,000 FEET WITH NO
SIGNIFICANT WEATHER AND/OR NO OBSTRUCTIONS TO VISIBILITY.

NYZ032-033-038>043-046>054-057>066-NYZ062>081-080100-
EAST


CITY           SKY/WX    TMP DP  RH WIND       PRES   REMARKS
ALBANY         MOCLDY    37  20  50 N7        30.04F WCI  32
GLENS FALLS    CLEAR     32  23  69 NE6       30.07F WCI  26
POUGHKEEPSIE   CLEAR     40  20  44 SE3       30.03R
NEWBURGH       PTCLDY    37  23  56 VRB6      30.03R WCI  33
MONTGOMERY     PTCLDY    33  24  69 CALM      30.01R
WHITE PLAINS   CLOUDY    38  21  50 NE5       30.01S WCI  34
ISLIP          CLOUDY    37  30  75 N9        30.01F WCI  30
NEW YORK CITY  CLOUDY    40  31  70 NE12      30.02S WCI  33
CENTRAL PARK   CLOUDY    41  27  57 E8        30.04S
$$

NYZ005>009-017-018-044>046-055-056-080100-
CENTRAL


CITY           SKY/WX    TMP DP  RH WIND       PRES   REMARKS
FULTON         CLEAR     38  24  57 E3        29.98F
SYRACUSE       MOCLDY    34  24  67 NE6       29.99F WCI  29
ROME           CLEAR     35  23  61 E8        30.02F WCI  29
ELMIRA         CLEAR     29  24  82 CALM      29.95F
BINGHAMTON     CLEAR     37  20  50 CALM      29.93F
MONTICELLO     PTCLDY    36  19  51 E3        29.99R
$$

NYZ026>034-041>043-080100-
NORTH


CITY           SKY/WX    TMP DP  RH WIND       PRES   REMARKS
WATERTOWN      PTCLDY    34  26  72 E7        30.00F WCI  28
FORT DRUM      NOT AVBL
MASSENA        CLOUDY    20   7  57 E15G26    30.15S WCI   6
SARANAC LAKE   CLOUDY    23  19  85 NE8       30.02R WCI  14
PLATTSBURGH    CLEAR     20   8  60 N8        30.18R WCI  10
$$

NYZ001>004-010>016-019>021-080100-
WEST


CITY           SKY/WX    TMP DP  RH WIND       PRES   REMARKS
NIAGARA FALLS  CLOUDY    45  27  49 SE7       29.88S
BUFFALO        MOCLDY    44  26  49 SE7       29.88F
DUNKIRK        CLOUDY    43  27  53 S8        29.88S
JAMESTOWN      CLOUDY    39  21  48 S6        29.87S WCI  35
WELLSVILLE     CLOUDY    38  23  55 S8        29.91S WCI  32
ROCHESTER      MOCLDY    42  26  53 SE8       29.94S
PENN YAN       CLEAR     32  24  72 SE5       29.95F WCI  27
$$

             KEY
       WCI = WIND CHILL INDEX
       VSB = VISIBILITY
       HX  = HEAT INDEX
$$




USA.gov is the U.S. government's official web portal to all federal, state and local government web resources and services.